Showing default

LIZZIESAT-2, 62383

Orbit data source: Space-Track

LIZZIESAT-2, 62383 is a payload satellite owned by Sidus Space (US) in LEO that was launched on Sat, 21 Dec 2024 UTC via an FALCON 9 launch vehicle from the Air Force Western Test Range (AFWTR). Payloads include a variety of satellites, spacecraft, and rockets equipped with specific instruments for various scientific and technological missions. These include communications satellites like Starlink; space stations such as the ISS; scientific satellites like the Hubble; Earth observation satellites from companies like Planet Labs, Umbra, and HawkEye 360; GPS; miniature CubeSats for education and research; and military/defense satellites.

Loading next visibility...
LIZZIESAT-2 details
Identifier
62383, 2024-247G
Orbit
LEO
Last TLE update17 hours ago
Origin
Flag of USSidus Space (US)
ManufacturerSidus Space
MissionOperational Commercial Sigint
Bus & MotorLIZZIESAT, Unknown motor
Mass~100 kg wet, ~100 kg dry
Launch date (UTC)
2024-12-21 (2 months ago)
Launch vehicle
FALCON 9
Launch site
Air Force Western Test Range (AFWTR)
Object type
Payload
Rocket body
Debris
Shape & HBRBox + 2 Pan, 1 m
Radar Cross Section0.240 m², Medium (>0.1 m² and < 1m²)

Expand to show TLE details & history

TLE from 17 hours ago
0 LIZZIESAT-2
1 62383U 24247G   25035.56671734  .00011837  00000-0  55323-3 0  9996
2 62383  44.9984 117.8608 0003379 257.1797 102.8706 15.19892936  7007
Epoch: 2025-02-04T13:36Z
Definitive object data (Epoch: 2025-02-04T13:36:04.378Z)
Latitude0.00002°
Longitude138.87242°
Altitude506.681 km
Speed7.612 km/s
True Right ascension07h 51m 26s
True Declination0° 00' 00"
Sunlit
Object was in full shadow at TLE epoch
Visualization TLE readout
Latitude11.66267°
Longitude146.7997°
Altitude506.336 km
Speed7.613 km/s
Apparent Right ascension06h 46m 19s
Apparent Declination-51° 54' 45"
Sunlit
Object is in full shadow
Visualization observer readout
Local Sidereal Time09:03:46
Azimuth200.515° SSW
Elevation-6.572°
Doppler factor1
Orbital elements
Apogee altitude510.095 km
Perigee altitude505.441 km
Semi-major axis6,885.905 km
Eccentricity0.0003379
Inclination44.9984°
RAAN117.8608°
Arg. of periapsis257.1797°
True anomaly102.90834°
Mean anomaly102.8706°
Eccentric anomaly102.88947°
Mean motion3.79841 °/min
BSTAR0.00055323
Orbital period94.78 mins
Loading maneuver chart data...
Loading historical data...
Loading historical data...
Loading historical data...
Loading historical data...
Loading historical data...
Loading historical data...
Loading historical data...

LIZZIESAT-2 Visibility forecast

Observer location: undefined°, undefined

Span
Click to sort rows by Start time (UTC) header in descending order
Start Az.
Max El. time (UTC)
Max El. Az.
Max El.
End time (UTC)
End Az.
5 mins2025-02-05 08:45:29.935Z221.779° SW2025-02-05 08:47:29.935Z151.409° SSE40.617°2025-02-05 08:50:29.935Z74.154° E
6 mins2025-02-05 10:24:29.935Z282.205° WNW2025-02-05 10:26:29.935Z327.45° NNW34.631°2025-02-05 10:30:29.935Z62.168° ENE
5 mins2025-02-05 12:04:29.935Z307.31° NW2025-02-05 12:06:29.935Z358.618° N32.856°2025-02-05 12:09:29.935Z73.025° E
6 mins2025-02-05 13:43:29.935Z291.987° WNW2025-02-05 13:46:29.935Z141.944° SSE44.124°2025-02-05 13:49:29.935Z117.936° SE
|